Precipitable_Water
1.04 1.04 1.05 1.03 0.99 0.94 0.93 0.91 0.91 0.92 0.90 0.89 0.87 0.85 0.84 0.86 0.86 0.81 0.78 0.73 0.74 0.62 0.59 0.62 0.60 0.58 0.58 0.60 0.61 0.63 0.65 0.67 0.69 0.70 0.69 0.66 0.65 0.68 0.70 0.70 0.69 0.66 0.64 0.59 0.58 0.56 0.57 0.59 0.60 0.61 0.63 0.59 0.60 0.62 0.62 0.62 0.61 0.60 0.59 0.55 0.53 0.51 0.48 0.48 0.46 0.46 0.51 0.55 0.51 0.49 0.51 0.52 0.50 0.52 0.50 0.52 0.53 0.55 0.57 0.57 0.56 0.53 0.49 0.50 0.51
1.05 1.08 1.07 1.05 1.02 0.99 0.95 0.94 0.92 0.92 0.89 0.88 0.83 0.79 0.81 0.85 0.85 0.82 0.73 0.71 0.73 0.61 0.56 0.56 0.52 0.51 0.52 0.53 0.57 0.59 0.61 0.65 0.67 0.66 0.63 0.55 0.51 0.53 0.56 0.57 0.56 0.52 0.48 0.44 0.45 0.44 0.45 0.47 0.50 0.55 0.59 0.57 0.58 0.58 0.59 0.60 0.60 0.58 0.60 0.59 0.55 0.52 0.54 0.53 0.52 0.50 0.49 0.53 0.49 0.51 0.50 0.52 0.46 0.51 0.48 0.49 0.51 0.55 0.58 0.59 0.60 0.55 0.50 0.51 0.51
1.14 1.12 1.10 1.08 1.08 1.07 1.00 0.95 0.92 0.91 0.88 0.86 0.80 0.77 0.80 0.83 0.83 0.76 0.70 0.66 0.67 0.60 0.56 0.53 0.47 0.47 0.49 0.50 0.52 0.54 0.57 0.59 0.60 0.58 0.54 0.48 0.44 0.46 0.51 0.50 0.48 0.47 0.48 0.49 0.50 0.50 0.46 0.45 0.49 0.54 0.58 0.56 0.56 0.57 0.59 0.60 0.62 0.60 0.60 0.63 0.60 0.60 0.63 0.63 0.58 0.53 0.51 0.50 0.52 0.51 0.52 0.53 0.50 0.51 0.53 0.54 0.55 0.57 0.57 0.60 0.59 0.59 0.60 0.59 0.57
1.15 1.16 1.16 1.12 1.12 1.05 0.99 0.95 0.93 0.92 0.88 0.86 0.77 0.78 0.80 0.81 0.80 0.72 0.66 0.66 0.67 0.65 0.62 0.54 0.47 0.46 0.46 0.48 0.49 0.49 0.49 0.49 0.48 0.48 0.46 0.45 0.46 0.48 0.52 0.56 0.57 0.57 0.56 0.57 0.57 0.57 0.55 0.52 0.53 0.56 0.57 0.56 0.57 0.59 0.63 0.64 0.64 0.64 0.64 0.66 0.66 0.66 0.68 0.67 0.65 0.60 0.57 0.53 0.55 0.53 0.54 0.54 0.57 0.59 0.59 0.59 0.59 0.60 0.61 0.60 0.61 0.61 0.63 0.63 0.61
1.23 1.23 1.20 1.14 1.08 1.01 0.95 0.93 0.93 0.93 0.91 0.86 0.75 0.78 0.81 0.81 0.75 0.67 0.66 0.67 0.69 0.67 0.65 0.55 0.50 0.51 0.50 0.48 0.49 0.49 0.49 0.48 0.49 0.50 0.52 0.54 0.56 0.59 0.62 0.63 0.62 0.62 0.61 0.61 0.61 0.61 0.60 0.60 0.59 0.60 0.60 0.58 0.59 0.62 0.65 0.65 0.67 0.68 0.67 0.68 0.68 0.68 0.68 0.68 0.67 0.64 0.60 0.57 0.56 0.57 0.58 0.60 0.64 0.65 0.64 0.61 0.61 0.63 0.64 0.61 0.60 0.59 0.59 0.59 0.58
1.12 1.08 1.13 1.10 1.10 1.01 0.96 0.95 0.95 0.95 0.92 0.82 0.74 0.78 0.81 0.81 0.72 0.66 0.66 0.67 0.70 0.70 0.67 0.61 0.52 0.53 0.56 0.54 0.53 0.55 0.55 0.53 0.54 0.55 0.57 0.60 0.61 0.62 0.64 0.64 0.63 0.62 0.61 0.62 0.63 0.63 0.61 0.62 0.63 0.64 0.64 0.63 0.63 0.66 0.68 0.68 0.69 0.69 0.69 0.70 0.71 0.71 0.69 0.70 0.70 0.68 0.65 0.63 0.61 0.59 0.61 0.61 0.63 0.65 0.66 0.63 0.60 0.58 0.59 0.60 0.60 0.59 0.56 0.55 0.56
1.12 1.13 1.09 1.02 1.01 1.06 1.03 1.01 0.98 0.93 0.84 0.75 0.78 0.83 0.84 0.79 0.71 0.68 0.70 0.72 0.72 0.71 0.70 0.66 0.60 0.55 0.57 0.60 0.61 0.61 0.59 0.56 0.56 0.59 0.61 0.62 0.63 0.63 0.63 0.64 0.63 0.63 0.62 0.62 0.62 0.63 0.62 0.60 0.61 0.64 0.65 0.66 0.66 0.66 0.67 0.68 0.69 0.68 0.69 0.70 0.72 0.72 0.71 0.71 0.71 0.70 0.68 0.66 0.65 0.65 0.64 0.66 0.66 0.63 0.68 0.67 0.63 0.60 0.56 0.54 0.53 0.57 0.57 0.55 0.53
1.04 1.09 1.08 1.07 1.06 1.03 1.05 1.07 1.03 0.96 0.90 0.90 0.92 0.94 0.89 0.75 0.68 0.70 0.75 0.76 0.76 0.76 0.71 0.66 0.68 0.60 0.58 0.59 0.63 0.64 0.64 0.60 0.58 0.61 0.63 0.63 0.64 0.65 0.64 0.63 0.63 0.64 0.64 0.64 0.64 0.63 0.63 0.63 0.63 0.63 0.65 0.69 0.72 0.74 0.73 0.72 0.74 0.73 0.75 0.74 0.74 0.73 0.72 0.73 0.73 0.73 0.71 0.70 0.67 0.66 0.68 0.67 0.68 0.71 0.72 0.66 0.60 0.59 0.60 0.57 0.53 0.54 0.56 0.58 0.59
1.12 1.12 1.05 1.02 1.02 1.01 0.98 1.05 1.10 1.05 1.00 0.98 0.97 0.95 0.91 0.82 0.72 0.76 0.79 0.81 0.83 0.81 0.76 0.71 0.67 0.63 0.61 0.59 0.61 0.64 0.63 0.62 0.61 0.59 0.61 0.63 0.63 0.63 0.64 0.64 0.64 0.63 0.63 0.64 0.65 0.66 0.67 0.68 0.68 0.70 0.72 0.74 0.76 0.78 0.79 0.78 0.75 0.74 0.77 0.79 0.78 0.77 0.76 0.77 0.76 0.74 0.74 0.73 0.72 0.74 0.73 0.72 0.73 0.71 0.67 0.63 0.58 0.56 0.60 0.60 0.57 0.58 0.60 0.59 0.61
1.12 1.07 1.03 1.00 1.01 1.04 1.03 1.03 1.04 1.05 1.06 0.99 0.96 0.95 0.93 0.93 0.91 0.88 0.87 0.88 0.88 0.86 0.78 0.73 0.70 0.63 0.60 0.60 0.60 0.61 0.62 0.63 0.64 0.63 0.63 0.62 0.62 0.62 0.63 0.64 0.65 0.66 0.65 0.64 0.65 0.68 0.69 0.70 0.72 0.76 0.81 0.84 0.84 0.84 0.83 0.82 0.82 0.81 0.81 0.81 0.81 0.79 0.78 0.77 0.77 0.77 0.76 0.75 0.76 0.77 0.76 0.75 0.75 0.74 0.70 0.68 0.67 0.65 0.61 0.58 0.55 0.58 0.59 0.57 0.60
1.16 1.06 1.00 1.03 1.06 1.08 1.06 1.05 1.04 1.00 1.08 1.05 0.99 0.97 0.96 0.96 0.95 0.92 0.90 0.89 0.87 0.86 0.82 0.76 0.75 0.70 0.65 0.63 0.60 0.59 0.60 0.62 0.64 0.66 0.66 0.66 0.66 0.65 0.64 0.63 0.65 0.68 0.68 0.66 0.65 0.67 0.70 0.73 0.75 0.79 0.82 0.84 0.84 0.84 0.84 0.85 0.86 0.86 0.87 0.87 0.86 0.82 0.78 0.76 0.76 0.77 0.76 0.76 0.79 0.80 0.78 0.76 0.75 0.75 0.71 0.68 0.66 0.63 0.62 0.61 0.58 0.58 0.55 0.52 0.49
0.97 0.95 0.98 1.05 1.08 1.10 1.12 1.13 1.11 1.08 1.10 1.08 1.05 1.01 1.00 0.98 0.96 0.95 0.93 0.91 0.91 0.90 0.83 0.81 0.82 0.80 0.75 0.73 0.72 0.71 0.69 0.68 0.66 0.65 0.65 0.66 0.68 0.68 0.68 0.66 0.65 0.66 0.68 0.69 0.70 0.71 0.71 0.74 0.77 0.81 0.83 0.85 0.85 0.85 0.85 0.85 0.86 0.88 0.88 0.88 0.87 0.87 0.85 0.80 0.77 0.77 0.78 0.76 0.77 0.79 0.79 0.76 0.73 0.71 0.68 0.66 0.65 0.66 0.65 0.63 0.60 0.57 0.53 0.50 0.48
0.84 0.83 0.85 0.87 0.89 0.92 0.97 1.00 1.03 1.05 1.06 1.04 1.03 1.01 0.99 0.99 0.99 0.97 0.95 0.96 0.95 0.92 0.92 0.90 0.88 0.90 0.88 0.83 0.79 0.79 0.78 0.79 0.78 0.76 0.74 0.74 0.75 0.76 0.75 0.72 0.70 0.68 0.68 0.69 0.71 0.74 0.77 0.80 0.81 0.83 0.84 0.86 0.86 0.86 0.86 0.86 0.85 0.84 0.84 0.83 0.83 0.83 0.82 0.82 0.83 0.81 0.80 0.78 0.75 0.74 0.75 0.75 0.71 0.69 0.68 0.68 0.69 0.64 0.62 0.59 0.58 0.55 0.52 0.48 0.46
0.78 0.76 0.77 0.78 0.79 0.82 0.85 0.87 0.88 0.90 0.93 0.94 0.93 0.92 0.92 0.94 0.98 1.01 1.02 1.01 0.97 0.97 0.97 0.95 0.95 0.93 0.92 0.90 0.88 0.87 0.85 0.85 0.83 0.82 0.80 0.79 0.79 0.79 0.80 0.81 0.81 0.81 0.81 0.80 0.80 0.80 0.81 0.82 0.84 0.86 0.90 0.93 0.94 0.94 0.93 0.91 0.88 0.85 0.83 0.83 0.82 0.83 0.83 0.82 0.83 0.85 0.86 0.83 0.80 0.76 0.79 0.77 0.71 0.70 0.72 0.71 0.65 0.60 0.57 0.54 0.52 0.48 0.46 0.44 0.45
0.75 0.76 0.76 0.76 0.77 0.79 0.80 0.81 0.81 0.82 0.83 0.84 0.85 0.84 0.83 0.83 0.85 0.88 0.90 0.92 0.93 0.93 0.94 0.94 0.96 0.97 0.97 0.98 0.95 0.93 0.94 0.93 0.89 0.87 0.84 0.81 0.79 0.78 0.78 0.80 0.81 0.81 0.82 0.82 0.83 0.84 0.84 0.85 0.84 0.85 0.88 0.92 0.96 0.98 0.97 0.95 0.91 0.89 0.86 0.83 0.83 0.84 0.85 0.85 0.84 0.84 0.84 0.85 0.85 0.84 0.83 0.80 0.74 0.73 0.74 0.72 0.66 0.60 0.56 0.52 0.49 0.46 0.46 0.47 0.45
0.71 0.73 0.73 0.75 0.77 0.78 0.78 0.77 0.76 0.77 0.77 0.78 0.77 0.76 0.76 0.76 0.77 0.79 0.78 0.79 0.80 0.82 0.85 0.88 0.89 0.91 0.95 0.97 0.97 0.95 0.96 0.95 0.94 0.93 0.92 0.90 0.87 0.83 0.79 0.77 0.77 0.79 0.82 0.85 0.85 0.85 0.86 0.86 0.86 0.86 0.87 0.88 0.95 0.96 0.95 0.95 0.93 0.92 0.87 0.83 0.83 0.85 0.85 0.85 0.86 0.85 0.82 0.81 0.81 0.81 0.80 0.74 0.74 0.74 0.71 0.67 0.62 0.59 0.55 0.53 0.49 0.45 0.42 0.39 0.36
0.70 0.70 0.71 0.72 0.73 0.74 0.76 0.75 0.73 0.73 0.74 0.73 0.73 0.72 0.71 0.70 0.70 0.72 0.70 0.70 0.69 0.70 0.71 0.73 0.76 0.78 0.81 0.86 0.86 0.87 0.90 0.94 0.94 0.94 0.93 0.93 0.92 0.90 0.89 0.85 0.86 0.87 0.87 0.89 0.89 0.88 0.87 0.86 0.89 0.88 0.92 0.90 0.88 0.88 0.91 0.93 0.93 0.91 0.87 0.84 0.83 0.83 0.84 0.87 0.87 0.83 0.79 0.77 0.76 0.75 0.70 0.70 0.72 0.70 0.66 0.63 0.59 0.56 0.51 0.45 0.41 0.41 0.37 0.33 0.34
0.73 0.71 0.71 0.70 0.71 0.69 0.69 0.71 0.69 0.69 0.70 0.69 0.67 0.66 0.65 0.65 0.65 0.67 0.66 0.66 0.65 0.64 0.65 0.65 0.67 0.69 0.71 0.73 0.78 0.81 0.84 0.88 0.90 0.89 0.89 0.90 0.90 0.88 0.88 0.88 0.90 0.89 0.91 0.95 0.96 0.94 0.90 0.87 0.89 0.90 0.86 0.89 0.88 0.88 0.90 0.89 0.85 0.84 0.81 0.76 0.74 0.74 0.76 0.80 0.82 0.82 0.79 0.71 0.67 0.65 0.66 0.66 0.63 0.61 0.59 0.57 0.55 0.52 0.46 0.40 0.40 0.39 0.34 0.34 0.32
0.64 0.66 0.67 0.67 0.66 0.66 0.65 0.64 0.63 0.63 0.63 0.61 0.60 0.59 0.60 0.61 0.62 0.63 0.63 0.63 0.63 0.64 0.64 0.64 0.64 0.65 0.66 0.67 0.68 0.70 0.73 0.80 0.86 0.88 0.89 0.88 0.87 0.86 0.84 0.82 0.81 0.83 0.84 0.85 0.88 0.88 0.89 0.89 0.87 0.85 0.85 0.88 0.89 0.88 0.89 0.88 0.85 0.83 0.81 0.77 0.75 0.77 0.79 0.82 0.81 0.76 0.69 0.62 0.60 0.61 0.59 0.58 0.57 0.55 0.54 0.52 0.51 0.49 0.47 0.42 0.41 0.37 0.34 0.35 0.35
0.64 0.64 0.64 0.64 0.65 0.66 0.66 0.64 0.63 0.61 0.60 0.59 0.58 0.58 0.58 0.58 0.57 0.57 0.58 0.58 0.58 0.59 0.59 0.58 0.57 0.59 0.62 0.64 0.66 0.67 0.67 0.71 0.78 0.84 0.85 0.86 0.87 0.85 0.83 0.78 0.74 0.75 0.77 0.77 0.77 0.79 0.81 0.81 0.81 0.83 0.84 0.86 0.88 0.88 0.87 0.86 0.83 0.83 0.81 0.77 0.77 0.79 0.80 0.82 0.78 0.71 0.64 0.60 0.58 0.57 0.55 0.54 0.53 0.52 0.51 0.50 0.49 0.49 0.47 0.45 0.42 0.40 0.37 0.35 0.34
0.68 0.67 0.65 0.63 0.62 0.62 0.63 0.64 0.63 0.64 0.64 0.62 0.61 0.60 0.59 0.58 0.57 0.56 0.54 0.55 0.54 0.54 0.54 0.55 0.56 0.56 0.58 0.58 0.59 0.60 0.62 0.62 0.65 0.69 0.74 0.77 0.79 0.80 0.79 0.77 0.76 0.75 0.74 0.72 0.72 0.72 0.75 0.78 0.82 0.84 0.86 0.88 0.88 0.87 0.86 0.88 0.89 0.87 0.87 0.85 0.87 0.87 0.83 0.75 0.66 0.61 0.58 0.58 0.55 0.54 0.54 0.53 0.53 0.54 0.53 0.51 0.49 0.47 0.45 0.44 0.44 0.43 0.39 0.35 0.34
0.68 0.68 0.68 0.67 0.67 0.65 0.64 0.64 0.64 0.64 0.63 0.63 0.62 0.61 0.62 0.62 0.60 0.59 0.58 0.57 0.55 0.53 0.53 0.52 0.51 0.51 0.50 0.49 0.50 0.51 0.54 0.57 0.59 0.63 0.67 0.70 0.72 0.73 0.72 0.71 0.72 0.71 0.68 0.66 0.66 0.67 0.70 0.75 0.79 0.83 0.85 0.86 0.86 0.87 0.87 0.87 0.88 0.86 0.86 0.88 0.89 0.87 0.79 0.70 0.62 0.58 0.58 0.58 0.56 0.54 0.55 0.54 0.53 0.51 0.50 0.48 0.46 0.45 0.44 0.45 0.45 0.45 0.43 0.42 0.39
0.64 0.65 0.65 0.65 0.65 0.64 0.63 0.63 0.63 0.63 0.61 0.61 0.59 0.58 0.58 0.57 0.56 0.56 0.54 0.53 0.51 0.50 0.49 0.48 0.47 0.46 0.46 0.46 0.47 0.47 0.48 0.50 0.52 0.54 0.57 0.62 0.68 0.73 0.73 0.71 0.70 0.70 0.65 0.62 0.63 0.66 0.72 0.75 0.77 0.80 0.81 0.82 0.82 0.83 0.84 0.84 0.84 0.85 0.87 0.86 0.83 0.79 0.71 0.64 0.62 0.61 0.59 0.58 0.54 0.52 0.51 0.50 0.49 0.47 0.46 0.45 0.45 0.45 0.44 0.45 0.45 0.44 0.44 0.45 0.44
0.63 0.62 0.61 0.61 0.60 0.60 0.60 0.59 0.59 0.58 0.58 0.58 0.57 0.55 0.54 0.54 0.53 0.52 0.50 0.49 0.47 0.45 0.45 0.44 0.43 0.41 0.40 0.40 0.42 0.43 0.44 0.46 0.47 0.49 0.52 0.56 0.58 0.61 0.65 0.68 0.70 0.70 0.69 0.65 0.67 0.72 0.74 0.75 0.76 0.77 0.78 0.79 0.79 0.79 0.78 0.77 0.77 0.79 0.82 0.81 0.80 0.73 0.64 0.59 0.58 0.57 0.56 0.54 0.52 0.50 0.49 0.49 0.47 0.44 0.44 0.45 0.46 0.45 0.45 0.44 0.44 0.45 0.45 0.44 0.43
0.55 0.54 0.53 0.52 0.52 0.53 0.53 0.53 0.53 0.52 0.52 0.52 0.50 0.49 0.49 0.49 0.47 0.48 0.47 0.45 0.44 0.42 0.42 0.42 0.40 0.40 0.39 0.38 0.38 0.39 0.40 0.41 0.42 0.44 0.47 0.52 0.57 0.59 0.61 0.63 0.67 0.72 0.72 0.72 0.74 0.74 0.76 0.76 0.76 0.75 0.74 0.74 0.74 0.72 0.71 0.71 0.74 0.76 0.77 0.76 0.73 0.67 0.63 0.61 0.58 0.54 0.51 0.50 0.49 0.47 0.46 0.45 0.45 0.46 0.47 0.47 0.47 0.47 0.46 0.46 0.46 0.46 0.45 0.44 0.43
0.48 0.48 0.48 0.48 0.47 0.47 0.46 0.47 0.47 0.48 0.48 0.48 0.47 0.46 0.44 0.43 0.42 0.41 0.40 0.40 0.39 0.38 0.37 0.37 0.36 0.35 0.34 0.35 0.35 0.35 0.36 0.37 0.38 0.40 0.43 0.45 0.49 0.54 0.59 0.63 0.66 0.72 0.75 0.75 0.76 0.77 0.76 0.75 0.74 0.73 0.72 0.70 0.68 0.65 0.63 0.66 0.69 0.72 0.72 0.70 0.68 0.66 0.63 0.59 0.55 0.52 0.49 0.47 0.45 0.44 0.44 0.45 0.46 0.48 0.49 0.49 0.47 0.46 0.46 0.45 0.43 0.42 0.42 0.40 0.37
0.44 0.44 0.44 0.44 0.44 0.43 0.41 0.41 0.41 0.41 0.41 0.41 0.41 0.41 0.41 0.39 0.38 0.37 0.37 0.36 0.35 0.35 0.35 0.34 0.34 0.33 0.32 0.32 0.32 0.32 0.33 0.34 0.35 0.36 0.39 0.40 0.44 0.49 0.54 0.59 0.65 0.70 0.73 0.76 0.76 0.76 0.75 0.75 0.73 0.73 0.71 0.70 0.69 0.68 0.65 0.63 0.62 0.63 0.65 0.65 0.66 0.65 0.61 0.54 0.49 0.47 0.47 0.46 0.47 0.48 0.49 0.50 0.52 0.52 0.51 0.50 0.49 0.49 0.47 0.43 0.40 0.38 0.37 0.35 0.33
0.40 0.40 0.40 0.40 0.40 0.41 0.40 0.40 0.40 0.40 0.40 0.41 0.40 0.39 0.39 0.39 0.37 0.36 0.36 0.35 0.34 0.34 0.34 0.33 0.33 0.33 0.32 0.32 0.32 0.31 0.30 0.31 0.32 0.34 0.36 0.38 0.40 0.44 0.50 0.54 0.58 0.64 0.69 0.73 0.77 0.79 0.77 0.76 0.74 0.71 0.68 0.65 0.64 0.63 0.59 0.58 0.57 0.58 0.60 0.63 0.64 0.61 0.55 0.51 0.48 0.47 0.48 0.50 0.51 0.52 0.52 0.53 0.53 0.53 0.53 0.51 0.48 0.45 0.43 0.39 0.37 0.35 0.34 0.33 0.29
0.37 0.36 0.37 0.37 0.37 0.38 0.38 0.38 0.38 0.38 0.38 0.38 0.39 0.39 0.37 0.37 0.37 0.37 0.39 0.40 0.38 0.36 0.35 0.34 0.35 0.35 0.34 0.33 0.31 0.28 0.28 0.28 0.31 0.36 0.38 0.40 0.41 0.40 0.40 0.43 0.49 0.56 0.64 0.70 0.74 0.73 0.73 0.72 0.70 0.68 0.65 0.63 0.63 0.63 0.60 0.58 0.57 0.57 0.58 0.57 0.55 0.52 0.50 0.46 0.44 0.46 0.49 0.51 0.51 0.51 0.52 0.53 0.54 0.53 0.50 0.45 0.42 0.40 0.40 0.37 0.36 0.33 0.33 0.32 0.28
0.38 0.38 0.39 0.39 0.39 0.38 0.37 0.37 0.37 0.36 0.35 0.35 0.35 0.36 0.39 0.40 0.39 0.37 0.36 0.39 0.40 0.40 0.40 0.37 0.37 0.37 0.35 0.35 0.35 0.32 0.29 0.31 0.34 0.35 0.37 0.40 0.42 0.43 0.44 0.44 0.46 0.50 0.57 0.67 0.70 0.72 0.71 0.72 0.69 0.66 0.63 0.63 0.62 0.60 0.57 0.55 0.53 0.50 0.49 0.48 0.48 0.47 0.46 0.45 0.46 0.52 0.53 0.53 0.52 0.51 0.51 0.51 0.49 0.47 0.43 0.40 0.39 0.38 0.38 0.36 0.34 0.34 0.31 0.30 0.27
0.39 0.39 0.39 0.38 0.38 0.37 0.36 0.36 0.36 0.36 0.36 0.36 0.35 0.34 0.34 0.36 0.39 0.40 0.40 0.39 0.39 0.39 0.39 0.40 0.40 0.39 0.37 0.34 0.35 0.37 0.36 0.35 0.35 0.36 0.38 0.40 0.43 0.45 0.45 0.44 0.47 0.50 0.53 0.59 0.63 0.65 0.67 0.69 0.69 0.67 0.67 0.65 0.62 0.60 0.57 0.53 0.49 0.46 0.45 0.45 0.45 0.44 0.44 0.47 0.54 0.55 0.53 0.52 0.51 0.51 0.51 0.49 0.45 0.43 0.41 0.39 0.37 0.37 0.36 0.36 0.35 0.34 0.32 0.29 0.27
0.36 0.36 0.37 0.37 0.37 0.36 0.37 0.37 0.37 0.36 0.36 0.37 0.36 0.35 0.34 0.33 0.35 0.40 0.41 0.40 0.40 0.40 0.40 0.40 0.40 0.39 0.38 0.37 0.36 0.35 0.36 0.36 0.36 0.38 0.40 0.42 0.44 0.45 0.47 0.46 0.48 0.50 0.52 0.56 0.58 0.64 0.62 0.64 0.65 0.65 0.64 0.61 0.60 0.59 0.57 0.53 0.50 0.46 0.44 0.43 0.42 0.44 0.49 0.53 0.54 0.53 0.53 0.52 0.51 0.51 0.49 0.46 0.44 0.42 0.41 0.39 0.37 0.35 0.34 0.34 0.34 0.32 0.30 0.29 0.27
0.37 0.37 0.37 0.36 0.37 0.37 0.38 0.38 0.37 0.37 0.36 0.36 0.36 0.36 0.35 0.34 0.32 0.33 0.38 0.41 0.41 0.40 0.40 0.40 0.40 0.39 0.38 0.38 0.38 0.38 0.37 0.38 0.40 0.40 0.42 0.43 0.44 0.45 0.48 0.50 0.49 0.50 0.50 0.48 0.49 0.51 0.57 0.62 0.61 0.61 0.60 0.57 0.55 0.55 0.54 0.51 0.50 0.48 0.45 0.44 0.44 0.49 0.54 0.54 0.56 0.55 0.54 0.52 0.51 0.49 0.47 0.45 0.43 0.42 0.40 0.38 0.36 0.33 0.33 0.33 0.32 0.31 0.29 0.27 0.26
0.38 0.37 0.37 0.37 0.38 0.38 0.39 0.38 0.37 0.36 0.36 0.35 0.35 0.34 0.35 0.34 0.34 0.34 0.32 0.33 0.35 0.38 0.40 0.40 0.39 0.38 0.39 0.39 0.39 0.39 0.39 0.40 0.42 0.44 0.44 0.45 0.47 0.49 0.49 0.48 0.49 0.50 0.48 0.45 0.44 0.47 0.50 0.48 0.49 0.51 0.56 0.59 0.58 0.55 0.53 0.53 0.54 0.53 0.50 0.48 0.52 0.55 0.55 0.57 0.56 0.54 0.53 0.51 0.48 0.45 0.43 0.43 0.42 0.39 0.37 0.36 0.35 0.34 0.33 0.32 0.31 0.29 0.27 0.26 0.25
0.38 0.38 0.39 0.40 0.40 0.40 0.40 0.39 0.37 0.36 0.35 0.35 0.34 0.34 0.33 0.34 0.34 0.34 0.33 0.32 0.31 0.31 0.32 0.35 0.38 0.39 0.39 0.40 0.40 0.41 0.41 0.42 0.44 0.45 0.46 0.47 0.48 0.48 0.48 0.45 0.43 0.45 0.47 0.47 0.44 0.44 0.46 0.45 0.45 0.46 0.50 0.53 0.53 0.52 0.51 0.52 0.53 0.53 0.54 0.54 0.55 0.56 0.56 0.55 0.54 0.52 0.51 0.48 0.44 0.42 0.41 0.40 0.39 0.38 0.35 0.34 0.33 0.32 0.31 0.30 0.29 0.28 0.26 0.26 0.26
0.39 0.39 0.40 0.41 0.41 0.40 0.40 0.39 0.38 0.37 0.36 0.36 0.36 0.35 0.34 0.34 0.33 0.33 0.33 0.33 0.32 0.31 0.31 0.33 0.35 0.38 0.40 0.41 0.42 0.42 0.43 0.44 0.45 0.46 0.47 0.47 0.47 0.47 0.43 0.41 0.41 0.43 0.45 0.47 0.47 0.46 0.43 0.41 0.41 0.44 0.47 0.49 0.51 0.52 0.52 0.51 0.52 0.54 0.56 0.55 0.54 0.55 0.54 0.53 0.52 0.50 0.49 0.47 0.43 0.42 0.40 0.39 0.38 0.36 0.35 0.34 0.32 0.31 0.29 0.29 0.28 0.27 0.27 0.27 0.27
0.40 0.40 0.41 0.42 0.41 0.41 0.40 0.39 0.39 0.38 0.38 0.38 0.37 0.36 0.35 0.34 0.34 0.34 0.34 0.34 0.34 0.35 0.35 0.35 0.36 0.37 0.39 0.42 0.44 0.44 0.45 0.45 0.46 0.47 0.47 0.47 0.48 0.48 0.46 0.44 0.42 0.44 0.45 0.47 0.49 0.48 0.44 0.42 0.44 0.46 0.48 0.50 0.52 0.55 0.55 0.57 0.58 0.57 0.56 0.56 0.55 0.54 0.53 0.52 0.51 0.50 0.49 0.45 0.42 0.41 0.39 0.38 0.37 0.35 0.33 0.31 0.29 0.29 0.28 0.27 0.27 0.27 0.27 0.27 0.27
0.42 0.41 0.42 0.42 0.42 0.41 0.39 0.39 0.40 0.39 0.38 0.38 0.37 0.37 0.36 0.36 0.35 0.35 0.35 0.35 0.36 0.35 0.36 0.36 0.37 0.37 0.38 0.41 0.46 0.46 0.46 0.47 0.47 0.47 0.48 0.48 0.48 0.48 0.47 0.46 0.46 0.45 0.46 0.49 0.49 0.49 0.47 0.45 0.48 0.50 0.52 0.53 0.54 0.56 0.58 0.58 0.59 0.58 0.57 0.55 0.54 0.53 0.53 0.51 0.51 0.50 0.46 0.43 0.41 0.40 0.38 0.37 0.35 0.33 0.31 0.28 0.26 0.26 0.26 0.26 0.26 0.26 0.26 0.27 0.28
0.42 0.42 0.43 0.43 0.42 0.41 0.41 0.41 0.40 0.39 0.38 0.38 0.38 0.38 0.36 0.36 0.35 0.36 0.36 0.37 0.37 0.37 0.39 0.39 0.39 0.40 0.41 0.44 0.45 0.48 0.47 0.45 0.45 0.46 0.48 0.49 0.49 0.49 0.47 0.46 0.46 0.46 0.48 0.49 0.51 0.50 0.48 0.49 0.52 0.56 0.58 0.59 0.60 0.60 0.60 0.59 0.58 0.57 0.55 0.53 0.52 0.52 0.51 0.50 0.48 0.45 0.44 0.42 0.40 0.39 0.37 0.34 0.32 0.29 0.28 0.26 0.25 0.25 0.25 0.25 0.26 0.26 0.26 0.27 0.28
0.43 0.42 0.42 0.43 0.41 0.41 0.40 0.40 0.39 0.38 0.38 0.37 0.37 0.38 0.36 0.36 0.36 0.37 0.38 0.38 0.38 0.40 0.42 0.42 0.42 0.43 0.46 0.48 0.47 0.47 0.45 0.45 0.46 0.48 0.50 0.50 0.49 0.48 0.47 0.45 0.46 0.46 0.46 0.46 0.47 0.49 0.50 0.50 0.52 0.58 0.61 0.61 0.61 0.61 0.60 0.58 0.55 0.54 0.54 0.53 0.53 0.51 0.50 0.47 0.45 0.44 0.43 0.41 0.39 0.36 0.34 0.32 0.29 0.28 0.26 0.26 0.25 0.25 0.25 0.25 0.26 0.27 0.28 0.27 0.28
0.43 0.41 0.41 0.42 0.41 0.40 0.39 0.39 0.38 0.38 0.39 0.38 0.38 0.37 0.36 0.37 0.38 0.39 0.40 0.40 0.41 0.41 0.42 0.43 0.44 0.46 0.48 0.50 0.51 0.50 0.48 0.46 0.45 0.49 0.50 0.50 0.49 0.50 0.50 0.50 0.51 0.53 0.55 0.56 0.55 0.54 0.52 0.53 0.53 0.52 0.55 0.57 0.57 0.56 0.57 0.57 0.57 0.56 0.55 0.54 0.53 0.50 0.47 0.45 0.44 0.44 0.43 0.40 0.37 0.34 0.32 0.29 0.27 0.26 0.24 0.25 0.26 0.25 0.26 0.27 0.27 0.28 0.27 0.28 0.29
0.42 0.39 0.39 0.42 0.41 0.39 0.38 0.38 0.38 0.39 0.39 0.39 0.38 0.38 0.38 0.39 0.39 0.40 0.40 0.40 0.40 0.41 0.42 0.43 0.45 0.48 0.49 0.48 0.48 0.49 0.49 0.48 0.49 0.49 0.50 0.50 0.50 0.52 0.54 0.55 0.54 0.53 0.54 0.54 0.55 0.54 0.54 0.53 0.51 0.51 0.52 0.53 0.54 0.56 0.57 0.57 0.56 0.54 0.54 0.53 0.50 0.45 0.44 0.44 0.44 0.42 0.39 0.37 0.35 0.33 0.29 0.27 0.26 0.26 0.25 0.25 0.24 0.26 0.26 0.26 0.27 0.27 0.27 0.28 0.29
0.40 0.37 0.39 0.42 0.40 0.38 0.37 0.38 0.38 0.38 0.39 0.39 0.39 0.40 0.40 0.41 0.40 0.40 0.40 0.40 0.41 0.41 0.42 0.42 0.43 0.46 0.47 0.47 0.48 0.48 0.48 0.47 0.47 0.48 0.49 0.49 0.48 0.49 0.52 0.54 0.54 0.53 0.52 0.54 0.56 0.56 0.56 0.54 0.52 0.51 0.53 0.55 0.58 0.58 0.57 0.56 0.55 0.54 0.52 0.48 0.45 0.45 0.45 0.44 0.42 0.38 0.37 0.35 0.34 0.31 0.28 0.26 0.25 0.25 0.24 0.24 0.25 0.25 0.26 0.26 0.26 0.27 0.28 0.29 0.29
0.39 0.35 0.39 0.42 0.40 0.39 0.38 0.38 0.38 0.39 0.40 0.40 0.40 0.40 0.41 0.41 0.40 0.40 0.40 0.40 0.40 0.40 0.41 0.41 0.42 0.43 0.45 0.47 0.47 0.47 0.47 0.47 0.47 0.46 0.46 0.47 0.48 0.48 0.48 0.49 0.51 0.52 0.52 0.53 0.54 0.55 0.55 0.55 0.55 0.57 0.57 0.56 0.56 0.57 0.57 0.56 0.55 0.52 0.49 0.48 0.47 0.44 0.43 0.42 0.40 0.38 0.37 0.35 0.33 0.29 0.26 0.25 0.25 0.24 0.24 0.24 0.25 0.25 0.24 0.26 0.27 0.28 0.28 0.29 0.30
0.37 0.33 0.37 0.40 0.40 0.39 0.39 0.39 0.38 0.39 0.40 0.41 0.40 0.40 0.40 0.40 0.40 0.40 0.40 0.40 0.40 0.40 0.40 0.42 0.43 0.43 0.44 0.45 0.45 0.44 0.45 0.45 0.46 0.46 0.46 0.45 0.45 0.46 0.47 0.49 0.49 0.49 0.51 0.51 0.55 0.56 0.56 0.56 0.57 0.56 0.54 0.54 0.55 0.55 0.54 0.53 0.52 0.51 0.49 0.47 0.44 0.42 0.42 0.41 0.41 0.40 0.38 0.35 0.31 0.27 0.25 0.24 0.24 0.24 0.23 0.24 0.25 0.25 0.25 0.26 0.27 0.28 0.29 0.29 0.30
0.35 0.33 0.36 0.39 0.39 0.39 0.39 0.39 0.39 0.39 0.38 0.39 0.39 0.39 0.39 0.39 0.40 0.40 0.38 0.38 0.39 0.40 0.40 0.41 0.42 0.43 0.44 0.44 0.44 0.43 0.42 0.42 0.42 0.43 0.43 0.43 0.42 0.43 0.44 0.45 0.48 0.49 0.50 0.52 0.53 0.53 0.54 0.54 0.54 0.53 0.52 0.52 0.53 0.54 0.53 0.52 0.52 0.51 0.49 0.48 0.46 0.44 0.43 0.41 0.40 0.38 0.36 0.33 0.28 0.25 0.24 0.24 0.24 0.24 0.25 0.25 0.25 0.26 0.27 0.27 0.28 0.29 0.29 0.29 0.30
0.35 0.33 0.35 0.39 0.39 0.39 0.38 0.38 0.38 0.38 0.39 0.40 0.40 0.40 0.40 0.40 0.40 0.40 0.38 0.37 0.38 0.40 0.41 0.41 0.42 0.42 0.43 0.43 0.43 0.43 0.43 0.43 0.42 0.42 0.42 0.43 0.43 0.43 0.44 0.46 0.47 0.49 0.50 0.52 0.53 0.53 0.51 0.51 0.52 0.52 0.52 0.52 0.52 0.50 0.51 0.50 0.49 0.48 0.46 0.45 0.44 0.42 0.40 0.39 0.37 0.34 0.31 0.28 0.26 0.25 0.24 0.24 0.24 0.25 0.26 0.26 0.27 0.27 0.27 0.28 0.28 0.28 0.30 0.30 0.29
0.34 0.33 0.33 0.38 0.38 0.38 0.37 0.37 0.37 0.38 0.39 0.40 0.40 0.41 0.41 0.41 0.41 0.39 0.38 0.37 0.38 0.40 0.41 0.41 0.42 0.42 0.43 0.44 0.45 0.44 0.44 0.44 0.45 0.45 0.45 0.44 0.44 0.45 0.46 0.47 0.48 0.50 0.50 0.51 0.52 0.53 0.53 0.52 0.52 0.52 0.51 0.50 0.48 0.47 0.48 0.48 0.47 0.46 0.45 0.44 0.41 0.40 0.38 0.37 0.34 0.32 0.29 0.27 0.26 0.25 0.25 0.26 0.27 0.27 0.28 0.28 0.28 0.28 0.28 0.28 0.28 0.29 0.28 0.28 0.29
0.34 0.32 0.31 0.34 0.37 0.37 0.36 0.36 0.36 0.37 0.39 0.39 0.40 0.40 0.41 0.41 0.40 0.39 0.38 0.38 0.39 0.40 0.40 0.41 0.42 0.43 0.44 0.45 0.45 0.45 0.46 0.46 0.46 0.47 0.47 0.47 0.47 0.48 0.48 0.49 0.50 0.50 0.51 0.52 0.52 0.52 0.52 0.52 0.51 0.51 0.50 0.50 0.49 0.48 0.47 0.46 0.45 0.44 0.44 0.42 0.40 0.37 0.35 0.34 0.32 0.29 0.28 0.28 0.29 0.30 0.30 0.31 0.31 0.30 0.30 0.30 0.30 0.31 0.30 0.30 0.29 0.28 0.28 0.28 0.29
0.34 0.32 0.31 0.30 0.33 0.34 0.35 0.35 0.35 0.37 0.39 0.40 0.40 0.40 0.41 0.40 0.38 0.37 0.38 0.38 0.39 0.39 0.40 0.41 0.42 0.43 0.44 0.44 0.45 0.46 0.47 0.46 0.47 0.48 0.49 0.50 0.50 0.51 0.51 0.51 0.51 0.51 0.52 0.52 0.52 0.52 0.52 0.51 0.51 0.50 0.50 0.48 0.47 0.45 0.44 0.43 0.43 0.42 0.41 0.39 0.36 0.34 0.32 0.30 0.30 0.30 0.31 0.33 0.33 0.34 0.33 0.33 0.32 0.31 0.31 0.31 0.31 0.31 0.30 0.30 0.30 0.30 0.29 0.28 0.28
0.34 0.32 0.31 0.29 0.29 0.31 0.32 0.32 0.33 0.35 0.38 0.39 0.39 0.40 0.41 0.40 0.39 0.38 0.38 0.38 0.39 0.40 0.41 0.42 0.43 0.44 0.45 0.45 0.46 0.47 0.47 0.47 0.48 0.48 0.48 0.49 0.49 0.50 0.50 0.50 0.50 0.50 0.50 0.49 0.49 0.48 0.48 0.47 0.45 0.43 0.43 0.43 0.42 0.41 0.40 0.39 0.38 0.38 0.36 0.34 0.32 0.30 0.30 0.31 0.32 0.34 0.36 0.36 0.36 0.36 0.34 0.33 0.32 0.31 0.31 0.32 0.32 0.32 0.31 0.31 0.31 0.31 0.30 0.29 0.29
Wind_Speed
16 16 15 15 14 14 13 13 12 12 11 10 10 10 9 8 7 7 6 6 6 6 6 6 6 6 7 7 7 7 7 7 6 6 6 6 6 6 7 7 7 7 7 7 7 7 8 7 7 7 7 6 6 6 6 7 7 7 9 10 11 10 10 9 8 9 9 9 10 9 9 9 9 9 9 9 9 9 9 10 10 10 10 10 10
17 17 16 16 15 15 14 14 13 12 11 11 10 10 9 8 7 7 6 6 7 6 6 6 6 7 8 7 7 7 7 7 6 6 6 6 5 6 6 6 6 6 6 6 6 7 7 7 7 7 7 7 7 7 7 7 8 8 8 9 10 11 10 9 8 9 9 10 10 10 9 9 10 10 10 10 10 10 10 11 11 11 11 11 11
18 18 18 17 16 16 15 14 13 12 12 11 11 10 9 8 7 7 7 7 7 7 6 6 6 7 8 7 7 7 7 7 7 6 6 6 6 6 6 6 6 6 6 6 6 6 6 7 7 7 7 7 7 8 8 8 8 8 8 9 10 11 11 11 10 10 10 10 11 11 11 11 11 10 11 11 11 11 11 11 11 11 12 11 11
19 19 19 18 18 16 15 15 14 13 12 12 11 10 9 8 7 7 7 7 7 7 6 6 6 6 7 8 7 7 7 7 7 7 7 7 7 6 6 6 6 6 6 6 6 6 6 7 7 7 8 8 8 8 8 9 9 9 9 9 10 11 12 12 11 11 11 11 12 12 12 12 12 11 11 11 11 11 11 11 11 11 12 12 12
18 18 18 18 17 17 16 15 14 13 13 12 11 10 9 9 8 8 8 8 7 8 7 7 7 7 7 8 8 8 7 7 7 7 7 7 7 7 7 7 7 7 7 7 6 6 6 6 7 8 8 8 9 9 9 9 10 10 10 11 11 11 12 12 12 12 12 12 13 13 13 13 13 13 13 12 12 12 11 12 12 12 13 13 13
17 17 17 17 16 16 16 15 14 14 13 13 12 11 10 9 9 9 9 8 8 8 8 9 8 8 8 8 8 8 8 8 8 8 7 8 8 8 8 8 8 8 8 8 8 7 7 8 8 8 9 9 10 10 10 10 11 11 12 12 12 12 13 13 13 13 13 13 14 14 15 15 14 14 14 14 14 13 13 13 13 13 14 14 14
16 17 17 17 17 16 14 14 14 14 14 13 12 11 11 10 10 9 9 9 8 8 9 9 10 9 9 9 9 9 9 9 9 9 9 9 9 9 9 9 9 9 9 9 9 9 9 10 10 10 11 11 12 12 12 12 12 12 13 13 14 14 14 14 14 14 14 15 15 16 16 16 16 16 16 15 15 15 15 15 15 15 15 15 15
14 15 15 15 16 16 14 14 14 14 14 13 13 12 11 10 9 9 8 9 9 9 9 10 10 10 11 11 10 10 10 10 11 11 11 10 11 11 11 11 11 11 11 11 11 11 11 12 12 13 13 13 13 14 14 14 13 14 14 15 14 15 15 15 15 15 16 16 17 17 17 17 17 17 17 17 17 17 17 17 16 16 16 16 16
13 14 13 13 14 15 15 14 14 14 14 14 13 12 11 10 9 9 9 9 9 10 10 10 10 11 12 12 12 12 12 12 12 12 12 12 12 13 13 13 13 13 13 14 13 13 14 14 14 15 15 15 16 16 16 16 16 16 16 16 16 16 16 17 17 17 17 17 18 18 18 18 19 19 19 19 19 19 18 18 17 17 17 17 18
12 12 11 12 12 13 14 14 14 14 14 14 13 12 11 10 10 9 9 10 10 10 11 11 11 12 12 13 13 14 13 13 13 14 14 14 14 14 15 15 15 15 15 16 16 16 16 16 17 17 17 17 18 18 18 19 19 18 18 18 18 17 17 18 19 19 19 19 20 19 19 19 20 20 20 20 20 19 19 19 19 19 19 19 19
10 9 10 11 11 12 13 13 13 14 14 13 13 12 12 11 11 11 11 11 10 11 12 13 13 13 14 14 15 15 15 15 15 16 16 16 16 16 17 17 17 17 17 17 18 18 18 19 19 19 19 19 20 20 20 21 21 21 21 20 20 20 20 20 20 21 21 21 22 22 22 21 21 21 20 20 20 20 20 20 20 20 20 20 21
8 8 9 10 10 11 13 13 13 14 15 14 13 13 13 13 12 12 12 12 12 12 13 14 14 14 15 16 16 16 17 17 18 18 18 18 17 18 18 18 19 19 19 20 20 20 20 21 21 21 21 21 21 22 22 22 22 22 22 22 23 23 23 23 23 23 23 23 24 24 24 23 22 22 22 22 21 21 21 21 21 21 22 22 23
8 8 8 9 10 10 11 12 13 14 14 15 14 14 14 14 14 14 14 14 14 14 14 15 15 15 15 16 16 17 17 18 19 20 20 20 20 20 20 20 20 20 21 21 22 22 22 22 22 22 23 23 23 23 23 23 23 23 23 23 24 25 25 26 26 26 26 26 26 26 26 25 24 24 24 23 23 22 22 22 23 23 23 24 24
8 8 9 9 10 11 11 12 13 13 14 14 15 15 14 14 14 15 15 15 15 16 16 16 17 17 17 17 18 18 18 19 20 21 22 22 23 23 22 22 22 22 22 22 22 23 23 23 24 24 25 25 25 25 25 25 25 24 24 25 25 26 27 27 28 28 28 28 28 27 27 26 26 26 25 25 24 24 24 24 25 25 25 25 25
9 9 9 10 11 12 12 13 13 14 14 14 15 15 15 15 15 15 15 16 16 16 17 17 18 19 19 20 21 21 21 21 21 22 22 23 24 24 25 25 25 25 24 24 24 24 25 25 25 26 26 26 27 27 27 27 27 27 27 28 28 29 29 29 29 29 29 29 28 28 27 27 27 26 26 26 25 25 25 25 26 26 26 26 26
11 11 11 12 13 13 14 14 15 15 16 16 16 16 16 16 16 17 17 17 17 17 18 18 19 19 20 21 22 23 24 24 24 24 24 24 24 25 26 27 27 27 27 26 26 27 27 27 28 28 28 28 28 28 28 28 29 29 29 29 30 30 30 30 30 29 29 29 28 27 27 27 27 27 26 26 26 25 26 26 26 26 26 26 27
13 13 14 14 14 15 16 16 16 17 17 17 17 17 18 18 18 18 19 19 19 19 20 20 21 21 22 22 23 24 25 25 26 26 27 27 27 27 28 29 30 30 30 29 29 30 30 30 30 30 30 30 30 30 29 29 30 31 30 30 30 30 30 30 30 28 28 27 27 27 26 26 26 26 26 26 26 26 26 26 26 26 26 27 27
15 15 16 17 17 17 17 18 18 18 19 19 19 20 20 20 21 21 21 21 21 22 22 23 24 24 25 25 26 26 27 27 27 28 29 29 30 30 31 31 31 32 32 32 33 33 33 33 33 33 33 32 32 32 31 31 31 31 31 31 31 31 30 30 29 28 27 26 26 26 25 25 25 25 25 26 26 26 26 26 27 27 27 27 28
17 18 18 19 19 19 19 20 20 20 20 21 21 22 23 23 23 24 24 24 25 25 26 26 27 27 28 28 28 29 29 29 30 31 31 32 33 33 34 34 34 34 35 35 35 36 36 36 35 35 35 35 35 34 34 33 33 32 33 32 32 31 31 31 30 28 27 26 25 25 24 24 24 24 25 25 25 25 26 26 27 27 27 27 28
19 20 20 20 21 21 21 21 22 22 23 24 24 25 25 26 26 27 27 27 28 29 29 29 30 30 31 31 31 31 31 31 32 33 34 34 35 35 36 36 36 37 37 37 38 38 38 37 37 37 37 36 36 36 35 35 34 34 35 34 34 33 33 32 30 28 27 26 25 24 24 24 23 24 24 25 25 25 25 25 26 26 26 27 28
21 21 21 21 22 22 23 23 24 25 26 26 27 28 28 29 29 30 30 31 31 32 32 32 33 33 33 33 34 34 34 34 35 36 37 38 38 38 38 39 39 39 39 39 39 39 39 39 38 38 37 37 37 37 36 36 36 36 35 34 34 34 33 32 30 29 27 27 25 24 24 24 24 24 24 24 24 24 24 25 25 26 26 27 28
22 22 22 22 23 24 24 25 26 27 28 29 30 30 31 31 32 32 33 34 34 34 35 35 35 36 36 36 36 37 37 37 37 38 39 40 41 41 41 41 41 41 42 42 41 41 41 40 39 39 39 38 39 39 38 38 38 37 35 34 33 33 31 30 29 28 27 27 26 25 24 24 24 24 24 24 24 24 24 25 25 26 26 27 28
23 23 24 24 25 26 26 27 28 29 30 31 31 32 33 33 34 34 35 35 36 36 37 37 37 38 38 39 39 39 39 40 40 40 41 43 43 44 44 44 43 43 43 44 43 42 42 41 40 39 39 39 40 40 40 39 39 38 36 34 32 32 30 28 28 28 27 27 26 25 25 24 24 25 25 25 25 25 25 25 25 26 26 27 28
24 25 26 26 27 28 29 29 30 31 31 32 32 33 34 34 35 35 36 36 37 37 38 38 39 40 40 41 41 41 42 43 43 44 44 45 45 45 45 45 45 45 45 45 44 43 42 41 40 39 39 39 39 39 39 38 38 36 34 32 31 31 30 28 28 29 28 27 27 26 26 26 26 26 26 26 26 25 25 25 26 26 27 27 28
26 27 28 29 30 31 31 31 32 32 32 33 34 34 35 36 36 37 37 38 38 39 40 40 41 41 42 43 43 43 44 45 45 46 46 46 46 46 46 46 46 46 46 45 44 43 42 41 40 40 40 39 38 38 37 36 35 33 32 31 31 30 29 28 28 28 27 27 27 27 27 27 27 26 26 26 25 25 26 26 27 27 28 28 28
28 29 30 31 32 32 33 33 33 34 34 35 35 36 37 38 38 39 39 40 40 41 42 42 43 43 44 44 45 45 45 45 46 46 46 45 46 46 46 46 46 47 47 46 45 44 43 41 40 40 39 38 37 36 35 34 32 31 30 29 30 29 28 27 29 28 27 26 27 27 27 27 27 26 26 26 26 26 27 28 28 29 29 29 29
29 30 30 31 32 33 33 34 35 35 36 36 37 38 38 39 39 40 40 41 42 42 43 43 44 44 44 45 46 46 46 46 46 46 45 45 45 46 46 46 46 46 46 46 45 43 42 41 40 39 38 37 36 35 34 32 30 29 28 29 29 29 28 27 28 28 28 27 27 27 28 28 28 28 28 28 28 28 28 28 29 29 28 28 27
29 30 31 31 32 33 34 34 35 36 36 37 37 38 38 39 40 40 41 41 42 42 43 44 44 45 45 46 46 46 47 46 46 46 45 45 45 45 46 45 45 45 45 45 44 43 42 40 39 38 37 36 36 34 33 31 30 29 29 29 29 29 28 28 28 28 29 29 28 29 29 29 29 29 29 29 28 28 28 28 27 27 26 26 26
29 30 31 32 32 33 34 34 35 36 36 36 37 37 38 39 39 40 40 41 41 42 43 43 44 45 45 46 46 46 47 46 46 46 46 46 45 45 45 45 45 45 45 44 43 42 41 40 38 37 36 36 35 33 32 31 30 29 29 29 29 28 28 28 28 28 28 28 28 29 29 29 29 28 28 27 27 27 26 26 25 25 24 24 25
30 31 32 33 33 34 34 34 35 35 36 36 37 38 38 38 39 39 40 40 41 41 42 42 43 43 44 44 45 45 46 45 45 46 47 46 45 45 45 44 43 43 42 42 42 41 40 38 37 36 36 36 35 34 33 31 30 29 29 29 29 28 28 27 27 27 26 26 26 27 27 27 26 26 25 25 25 25 25 24 24 23 23 24 24
31 31 32 33 33 33 34 34 34 35 35 35 36 37 37 38 38 39 39 39 40 40 41 41 41 41 42 42 42 43 43 43 44 44 44 44 44 43 43 42 41 40 39 39 39 38 37 36 36 35 35 36 36 35 33 32 30 30 29 29 28 28 27 27 26 26 25 25 25 25 25 25 24 24 24 23 23 23 23 23 23 22 22 23 24
31 31 31 32 32 32 33 33 33 34 34 35 35 36 36 37 37 37 38 38 38 38 39 39 39 39 40 40 40 40 40 40 40 40 40 41 41 40 39 38 38 37 36 36 37 36 35 34 33 33 34 34 34 33 32 30 29 29 29 29 28 28 27 26 25 25 24 25 25 24 24 23 23 23 23 23 23 23 22 22 21 21 22 22 23
31 31 31 31 31 32 32 32 32 33 33 34 34 34 35 35 35 35 36 36 36 36 37 37 37 37 37 37 37 37 37 37 36 36 37 37 37 36 35 34 34 34 34 34 35 36 35 33 31 30 30 30 30 29 29 28 27 28 28 28 28 27 26 25 24 24 24 24 23 22 22 22 22 22 21 22 22 22 21 21 21 21 21 22 22
30 30 30 30 30 30 30 30 31 31 31 31 32 32 32 32 32 32 32 32 32 32 33 33 33 33 33 33 34 34 34 34 33 33 33 33 33 32 31 31 31 31 32 33 34 35 36 36 35 33 30 29 29 29 28 28 27 27 27 27 26 26 25 24 23 23 22 21 20 20 20 21 21 20 20 21 20 20 20 20 20 21 21 21 22
27 27 27 27 28 28 28 28 28 28 29 28 28 28 28 28 27 27 27 27 28 29 30 30 31 32 32 32 33 33 33 33 32 31 31 31 31 30 29 29 29 29 30 31 32 34 36 37 37 37 34 32 32 32 31 30 29 28 27 26 26 25 24 23 22 22 20 19 19 19 19 20 20 20 20 20 19 19 19 20 20 20 20 20 20
24 24 24 25 25 25 25 25 25 25 25 24 24 24 23 23 23 24 24 25 26 27 28 29 30 30 31 31 31 32 32 32 31 31 31 31 30 30 29 29 29 28 28 29 30 31 33 34 36 36 34 33 33 33 32 30 29 28 27 27 27 26 25 23 22 21 20 20 19 19 19 19 19 18 18 18 18 18 18 19 19 18 18 18 19
21 21 22 22 22 22 22 22 22 21 21 20 20 20 20 21 21 22 23 24 25 26 27 27 28 28 29 29 29 29 30 30 30 30 30 30 30 30 30 29 28 28 28 28 28 28 29 30 31 31 31 31 32 32 31 30 29 27 26 26 26 25 24 23 22 21 21 20 19 19 18 18 17 16 16 16 17 17 17 17 17 17 17 18 18
19 19 19 20 19 19 19 19 19 19 19 18 18 19 19 20 21 21 21 22 23 24 25 25 25 25 25 26 26 26 26 27 28 28 28 27 27 28 28 28 28 27 27 27 27 26 26 25 26 26 27 28 29 30 30 30 29 28 26 25 24 23 23 22 22 21 20 19 18 18 18 17 16 16 16 16 16 16 16 16 15 16 16 17 18
17 17 18 18 17 17 17 17 17 17 18 18 18 18 18 19 19 19 20 21 21 21 21 21 22 22 23 24 24 23 23 23 23 23 22 22 23 24 25 25 25 25 25 25 25 24 23 23 22 23 24 26 26 27 27 28 28 26 25 24 23 22 22 22 21 19 19 18 18 17 17 16 16 16 16 16 15 15 15 15 14 15 16 17 18
15 16 16 16 15 15 16 16 16 16 16 17 16 16 16 17 17 18 18 19 18 18 19 19 20 20 21 21 20 19 19 19 18 17 16 16 17 18 19 20 21 21 22 23 22 22 21 21 20 21 23 24 24 24 24 25 24 24 23 22 22 21 21 20 19 18 17 17 16 15 15 15 15 15 15 14 14 14 14 13 13 14 15 16 16
14 15 15 15 14 14 14 14 14 14 14 14 14 14 14 15 15 16 16 16 17 18 18 18 19 19 19 18 16 15 14 13 12 12 12 13 13 13 13 14 16 17 19 20 20 20 20 19 20 21 22 22 22 22 22 22 21 21 21 20 20 20 19 18 18 17 16 16 15 15 15 15 15 14 14 14 14 13 13 13 13 14 14 14 14
13 14 13 13 12 12 12 12 12 12 12 12 12 12 13 13 14 14 15 15 16 17 17 17 17 17 16 15 13 12 11 9 8 9 9 9 9 9 9 10 11 13 15 16 17 18 18 18 18 20 21 22 22 22 21 21 20 20 20 20 19 18 18 18 17 17 16 16 15 15 15 15 14 14 14 14 13 13 13 13 13 13 13 13 13
12 12 12 11 11 11 10 10 10 11 11 11 11 11 12 12 13 13 14 14 15 16 16 16 16 16 14 13 12 10 8 7 6 6 6 6 6 7 8 9 10 11 12 13 15 16 17 16 16 18 20 21 22 20 19 19 20 20 20 20 19 18 18 18 17 16 16 16 15 15 15 15 14 14 13 13 12 12 12 12 12 11 12 13 13
11 11 11 10 10 10 10 10 10 10 10 11 11 11 11 11 12 13 13 14 15 15 15 15 15 14 12 12 11 9 7 6 5 4 3 3 3 4 6 7 8 9 11 12 13 15 15 15 16 17 18 19 20 19 17 17 18 19 19 19 18 18 17 17 16 16 16 16 15 15 14 14 14 13 13 12 12 12 12 11 11 12 13 13 13
10 10 10 10 9 9 9 10 10 10 10 10 10 10 10 11 12 12 13 14 15 15 14 14 14 12 11 10 9 7 6 5 5 4 3 3 3 3 4 6 7 9 10 11 12 13 14 14 15 16 16 16 18 19 17 16 16 17 17 17 17 17 16 16 16 15 15 15 15 15 14 14 13 13 13 12 12 12 11 11 12 13 13 13 13
9 10 10 9 9 9 10 10 10 10 10 9 9 9 10 11 11 12 13 14 14 13 13 12 12 11 10 8 7 6 5 4 4 4 4 4 4 4 4 5 6 7 9 9 10 12 13 14 14 16 16 15 16 17 17 16 15 15 16 16 16 16 15 14 15 15 15 15 15 15 14 14 14 13 13 13 12 12 12 12 12 13 13 13 13
8 9 9 8 8 9 9 10 10 9 9 9 8 8 9 10 11 11 13 13 13 11 11 11 11 10 8 7 6 5 4 4 3 3 2 2 3 3 4 5 6 7 8 9 10 11 12 13 14 15 16 15 15 15 17 16 15 15 16 16 16 16 15 15 15 15 15 15 15 14 14 14 14 13 13 13 12 12 12 12 12 12 13 13 12
7 7 7 7 8 8 9 9 9 8 8 8 8 8 9 9 10 10 12 12 11 10 10 10 9 9 8 6 4 3 3 3 3 2 1 0 1 2 3 4 5 7 8 10 11 12 12 12 13 13 14 14 14 14 16 17 17 16 16 16 16 16 16 16 15 15 15 14 14 14 14 14 14 13 13 13 12 12 12 12 12 12 13 13 12
6 6 6 7 7 7 8 8 8 8 7 8 8 8 8 8 9 10 10 10 9 9 9 9 8 8 6 5 4 3 3 3 3 3 3 3 4 4 5 5 6 7 8 10 11 11 10 10 10 11 11 12 12 13 15 17 17 16 15 15 15 16 15 15 15 15 14 13 13 12 12 12 13 13 13 13 12 12 12 12 12 12 13 12 12
5 5 6 6 6 7 7 8 8 7 7 7 7 7 7 7 8 9 9 8 7 8 8 8 7 6 6 6 6 6 5 5 5 5 5 6 6 6 6 6 6 7 8 9 9 9 9 9 9 9 10 10 11 11 12 14 16 16 15 15 14 14 14 14 14 13 13 13 12 12 12 12 12 12 13 13 13 13 12 13 13 13 13 12 12
4 4 5 6 6 6 7 7 8 7 7 7 7 7 7 7 8 8 7 6 6 7 7 7 6 6 6 7 7 7 7 7 7 7 6 6 6 7 6 6 6 6 7 7 7 7 7 7 7 8 8 9 9 9 10 11 13 15 15 14 14 14 14 14 13 13 13 13 12 12 12 12 12 12 13 13 13 13 13 13 13 13 13 12 12
Wind_Direction
214 215 216 217 218 220 221 221 223 226 228 228 227 227 230 233 236 237 236 229 220 216 219 218 213 208 203 202 202 203 205 207 211 214 212 212 215 215 216 217 218 219 222 226 226 224 222 222 224 227 226 223 224 231 239 245 250 252 250 246 242 240 240 244 251 252 251 251 252 254 253 253 256 257 258 263 266 265 268 271 272 272 273 276 279
217 218 220 221 222 223 222 222 224 226 226 227 226 225 228 230 231 232 231 223 214 211 215 215 211 205 203 204 205 205 208 209 210 210 211 212 214 215 215 214 218 221 223 225 226 224 222 221 225 232 234 233 237 245 252 254 255 257 256 250 243 242 247 250 251 251 250 249 250 252 253 254 256 257 257 263 269 270 271 271 268 266 266 270 276
221 222 224 224 223 223 222 222 223 224 223 223 222 223 225 226 227 226 221 214 209 206 209 208 204 202 203 206 209 210 213 213 212 211 212 214 213 213 214 214 216 218 217 217 220 222 220 221 227 235 239 243 248 254 257 259 258 256 254 250 245 245 250 254 254 251 248 250 251 252 254 257 258 258 258 262 269 271 271 269 266 263 264 267 274
223 223 223 222 221 221 221 222 222 221 221 221 219 220 222 224 224 219 211 208 206 205 206 203 199 201 206 209 211 214 214 213 212 210 210 211 210 210 212 215 216 216 214 215 219 222 222 224 230 237 242 246 250 254 257 259 259 256 254 253 252 253 256 257 258 257 253 253 255 254 254 257 260 260 260 261 265 267 267 268 265 263 265 269 274
224 224 224 222 220 219 218 219 220 220 220 219 217 218 221 222 222 216 209 207 207 206 207 207 204 205 212 214 213 215 216 213 211 210 210 210 209 209 212 217 219 218 218 221 224 226 228 230 234 239 242 245 249 254 257 260 259 257 257 258 258 260 260 258 260 260 257 255 256 256 255 257 260 262 260 260 262 264 267 270 268 266 269 271 275
224 225 225 224 222 220 219 219 220 220 220 218 216 218 221 221 219 215 210 208 209 209 210 213 213 212 216 218 217 220 224 221 218 218 219 218 217 217 218 220 223 225 227 231 234 238 241 243 245 247 248 250 253 257 259 259 259 259 259 261 263 263 261 259 261 262 260 258 258 258 257 258 260 262 260 259 260 263 267 270 271 270 271 273 278
224 225 222 220 220 220 221 222 219 218 218 217 216 218 219 218 216 213 210 209 213 215 215 218 219 217 218 221 223 226 230 228 226 226 227 227 226 225 225 226 229 232 236 239 242 247 251 253 255 256 256 257 259 260 261 261 261 261 261 263 265 265 264 263 263 264 262 261 260 259 259 260 260 262 263 261 262 265 267 269 270 272 273 276 279
220 215 211 212 215 217 221 221 217 216 217 216 216 216 215 214 214 213 212 214 220 223 220 220 222 223 225 227 228 231 234 234 232 231 231 231 230 232 233 233 235 238 240 244 248 252 255 257 259 260 260 260 261 262 263 263 264 263 262 264 264 265 266 266 266 264 263 262 261 261 262 262 263 265 265 264 264 267 268 268 269 271 275 278 280
213 207 208 214 217 220 221 218 216 218 218 216 216 216 215 216 216 217 219 224 229 229 226 226 227 229 232 233 234 237 241 243 240 237 237 238 238 239 240 240 241 243 245 248 252 256 258 260 261 262 262 261 261 262 263 265 267 266 264 263 264 264 266 267 267 266 265 264 263 263 263 264 265 266 265 265 266 267 268 269 269 271 274 277 279
213 212 218 221 221 221 219 216 216 218 216 215 215 217 219 220 221 223 226 230 234 234 232 234 236 236 237 238 240 242 246 247 244 242 243 245 246 246 245 246 247 249 250 252 255 258 261 262 263 263 263 262 262 263 263 265 267 267 265 263 263 264 266 267 268 268 267 266 264 264 264 264 264 265 264 265 267 268 268 268 269 271 274 277 280
220 225 227 224 223 221 217 216 219 218 215 214 213 215 220 225 229 232 232 234 238 239 237 239 242 243 242 243 244 246 248 248 247 247 249 250 250 250 249 249 250 252 253 255 257 259 262 264 265 264 264 265 265 265 265 266 266 266 266 265 264 265 267 267 268 269 269 267 265 264 265 265 265 264 264 265 267 268 268 268 269 272 275 278 281
227 230 227 224 224 221 218 220 221 220 222 225 225 224 227 233 238 239 239 240 243 244 243 243 246 246 245 246 247 248 249 250 251 252 252 252 251 251 252 252 253 254 255 257 259 261 263 265 266 266 266 266 267 268 268 267 267 266 266 267 267 268 269 269 269 269 269 268 266 265 264 264 264 264 264 265 266 268 269 269 270 273 276 279 281
230 230 226 225 225 224 225 227 227 229 233 237 237 237 240 244 245 246 246 247 248 249 248 247 248 249 249 249 249 250 251 253 253 253 253 253 252 252 254 255 256 257 258 260 262 263 265 266 267 268 268 268 268 268 268 268 267 266 266 267 269 270 270 271 270 270 270 268 266 265 264 263 263 263 264 265 267 268 269 270 272 274 277 279 281
232 232 231 231 232 233 234 234 236 240 243 243 242 244 249 251 251 252 253 253 254 254 253 252 252 252 253 253 255 256 256 257 256 255 253 253 252 253 255 255 256 258 259 262 264 265 266 267 267 268 269 270 270 270 269 268 267 266 268 269 271 272 272 272 272 271 270 269 266 264 264 263 263 263 263 265 267 267 268 270 272 275 277 280 282
237 238 238 240 240 239 240 241 242 245 247 247 246 248 251 253 254 255 256 256 257 257 257 258 257 257 258 258 258 259 260 259 259 258 257 255 254 255 255 256 256 257 259 262 264 266 267 267 267 268 269 270 270 269 270 268 266 267 270 272 273 273 273 273 273 272 271 269 266 264 263 262 262 262 262 264 266 267 269 271 273 275 278 281 284
244 245 246 246 246 245 245 246 247 248 249 250 250 251 253 254 255 256 256 257 258 259 259 260 261 262 263 262 261 262 262 262 262 261 260 259 259 259 259 258 258 259 260 262 265 267 268 269 269 268 268 269 269 269 270 269 268 269 271 273 274 275 274 273 273 271 270 267 263 262 260 259 259 260 261 264 266 268 271 273 274 276 278 281 284
249 250 250 251 252 252 251 250 252 253 253 253 254 254 255 256 257 258 258 259 261 262 263 263 264 265 265 265 264 265 265 264 264 263 262 262 263 264 264 263 262 261 262 264 266 269 270 271 270 269 268 269 270 270 270 269 269 270 271 272 273 274 274 273 271 270 268 264 260 258 257 257 258 260 262 265 267 269 271 273 274 276 279 281 284
251 252 253 255 256 256 254 254 255 256 256 256 257 257 258 259 260 261 261 261 262 263 264 264 265 266 267 267 267 267 266 265 264 264 265 265 265 267 268 267 265 264 265 266 267 269 271 271 270 269 269 270 271 270 269 268 269 270 270 270 270 270 272 272 269 267 265 262 258 257 257 258 260 262 264 266 267 269 271 272 274 276 279 281 285
254 255 256 258 258 257 256 256 257 258 259 260 260 261 262 263 263 264 264 264 264 264 264 264 265 266 267 268 268 268 267 266 265 265 266 266 267 268 269 268 267 267 267 268 268 269 271 272 271 270 269 269 270 269 268 267 268 268 269 269 268 268 269 268 265 262 261 259 258 258 259 260 262 264 266 267 268 270 271 272 274 277 279 281 284
257 257 259 259 259 259 258 259 260 261 262 263 264 264 265 265 266 266 266 266 266 266 266 266 266 267 267 267 268 267 267 267 267 267 267 267 268 269 269 269 268 268 268 268 269 269 271 272 272 270 268 268 268 267 267 266 267 268 269 269 269 268 267 264 260 258 257 256 256 257 259 262 264 266 268 269 270 271 272 273 276 278 280 282 285
257 258 259 261 261 261 261 262 263 264 264 266 266 267 267 267 268 268 268 268 269 269 268 268 268 269 268 268 268 267 267 268 268 268 269 269 268 269 269 269 269 269 269 269 269 270 271 272 271 270 268 267 266 266 266 266 267 269 269 269 269 268 264 259 256 254 253 253 254 255 258 262 265 267 269 270 271 272 273 275 277 279 281 283 285
261 261 262 263 263 263 264 265 266 266 267 268 268 268 269 269 269 269 270 270 271 271 271 271 271 271 271 270 269 269 268 269 270 270 269 269 269 269 270 270 270 270 270 270 271 271 271 271 270 269 267 266 265 266 266 266 267 268 268 267 267 264 259 255 252 250 250 251 251 254 258 262 264 267 269 270 271 272 274 277 278 280 283 284 285
264 266 266 267 267 267 267 268 268 269 270 270 271 271 271 271 271 272 272 273 273 273 273 273 273 273 272 272 271 270 270 270 270 271 271 270 270 269 269 270 270 270 270 270 271 271 271 270 269 268 266 266 266 266 267 266 266 266 265 264 262 258 255 252 249 248 248 249 250 253 258 260 263 266 268 269 271 273 276 278 279 282 283 284 285
266 267 268 269 270 270 270 271 271 271 272 272 272 273 273 273 273 273 274 274 274 275 275 275 274 274 274 273 273 272 272 272 272 272 272 272 271 269 269 269 269 269 270 270 270 269 269 268 267 266 266 266 267 267 266 266 265 264 262 259 257 254 252 250 248 247 247 248 250 254 257 260 263 265 267 269 272 274 276 278 280 281 282 283 285
268 269 270 271 272 272 273 273 273 273 274 274 274 274 274 274 274 274 274 275 275 275 275 275 275 275 275 275 274 274 273 273 273 273 273 273 271 270 268 268 268 268 268 268 268 267 266 266 265 265 266 266 266 266 265 264 262 260 258 255 253 250 249 248 247 247 247 248 250 253 257 260 262 264 265 268 271 273 276 277 279 281 282 283 285
270 271 272 273 274 274 275 275 275 275 274 274 274 274 275 275 275 275 275 275 276 276 276 276 276 276 276 275 275 274 274 273 273 273 273 272 271 270 269 268 267 266 267 267 266 265 265 264 264 264 264 264 264 263 262 260 259 257 255 252 248 245 245 246 247 246 246 246 249 252 256 259 260 262 264 267 270 272 275 277 278 280 281 283 285
272 273 274 274 275 275 275 275 275 275 274 275 275 275 275 275 276 276 276 276 276 276 276 277 276 276 276 276 275 275 274 273 272 272 272 271 271 270 269 268 267 267 267 266 265 264 263 263 262 262 261 261 261 260 259 258 257 255 253 250 246 244 244 246 247 247 246 247 250 254 258 260 261 263 266 267 269 272 275 276 278 280 282 284 286
275 275 276 276 276 276 276 276 275 275 275 275 275 275 276 276 276 276 276 276 276 276 276 277 277 277 277 276 276 276 275 274 273 272 272 271 271 270 269 269 268 267 266 265 263 262 261 260 259 258 258 257 257 257 256 255 254 252 250 248 245 244 244 245 246 247 248 250 253 257 260 262 263 265 266 267 269 272 274 276 278 280 282 285 287
277 277 278 278 278 278 277 277 277 277 277 277 277 277 277 277 277 277 276 276 276 276 277 277 277 277 277 277 277 277 276 276 274 273 272 271 271 270 270 270 268 266 265 264 262 259 258 256 255 253 252 251 251 252 252 251 250 249 248 246 245 244 244 245 245 247 249 252 254 257 259 261 263 264 265 266 269 272 274 276 278 280 283 286 289
278 278 279 279 279 279 279 279 279 279 279 279 279 279 278 278 278 278 278 278 277 277 278 278 278 277 277 277 276 276 276 276 276 274 272 271 270 270 270 269 268 266 264 262 260 256 253 252 250 249 248 247 247 248 248 247 246 246 246 245 244 243 243 244 245 246 249 251 253 256 258 259 260 261 263 265 268 271 274 277 279 281 284 287 289
279 280 280 280 280 281 281 281 281 281 281 282 282 282 281 281 280 279 279 279 279 279 279 279 279 278 278 277 277 277 276 277 276 275 272 271 270 270 269 268 267 264 261 259 256 252 249 248 247 247 247 246 246 246 245 244 244 243 242 242 242 242 242 243 244 244 246 249 253 255 256 257 257 259 262 265 269 273 276 279 281 283 285 287 289
281 281 281 281 281 282 282 282 282 283 283 283 283 283 283 283 283 282 281 281 280 280 280 280 280 280 280 279 278 277 277 277 277 275 272 270 269 269 268 267 265 261 258 255 252 249 246 246 246 247 247 245 244 243 242 241 241 240 239 239 241 241 241 241 241 243 247 250 253 255 255 256 257 260 263 267 271 274 277 279 281 283 285 287 289
282 282 282 282 282 283 283 283 283 283 284 285 285 285 285 284 284 285 284 283 282 281 281 281 281 282 281 280 279 278 277 277 277 275 272 269 268 268 267 265 263 259 255 253 250 246 244 244 244 245 245 243 241 238 237 237 238 238 238 238 239 239 237 236 239 245 249 251 252 253 253 254 257 261 265 269 272 274 275 277 279 281 284 287 290
283 283 283 283 283 284 284 284 285 285 286 286 286 287 287 286 286 286 285 285 285 284 283 282 282 283 283 281 280 279 277 277 277 275 271 269 268 267 266 265 262 259 256 252 248 246 244 244 244 243 243 242 239 236 235 236 238 238 237 236 234 231 230 234 241 246 247 247 249 250 252 255 258 261 265 267 269 271 272 274 277 280 284 287 290
284 284 284 284 284 285 285 286 286 286 287 287 287 288 289 289 289 288 287 287 288 288 287 286 286 286 285 283 282 280 278 277 276 274 270 267 266 264 264 263 261 259 256 252 249 246 246 245 244 243 242 242 241 238 236 236 236 236 235 231 227 225 229 237 242 243 242 244 248 251 253 256 260 262 263 265 267 269 271 274 278 281 284 288 292
286 286 287 287 287 287 288 288 288 288 288 288 289 290 291 291 292 291 291 290 290 290 290 290 290 289 287 285 283 281 279 277 275 273 270 266 263 262 262 261 259 257 255 253 250 248 247 245 244 242 240 240 239 236 233 232 232 231 230 227 226 230 236 239 238 237 241 248 251 252 253 256 259 262 263 265 267 270 273 276 279 282 285 289 294
289 289 289 290 290 290 290 290 290 291 292 291 291 292 292 293 293 293 293 293 292 292 292 293 293 293 291 289 287 284 281 278 276 274 271 266 263 261 260 258 257 256 254 253 251 248 246 244 242 239 236 235 234 230 228 227 227 227 225 226 229 232 233 231 232 239 245 249 250 249 251 253 256 259 262 265 269 272 275 277 279 282 287 293 297
291 292 293 293 292 291 292 292 293 294 295 295 294 294 294 295 295 295 296 297 298 298 297 298 298 297 296 295 292 288 284 281 278 275 272 267 263 260 258 256 255 253 252 249 248 246 244 242 238 235 232 229 226 224 224 225 224 223 223 223 224 225 225 228 234 241 244 245 245 246 248 251 254 258 262 266 269 272 274 277 280 285 292 296 298
293 295 296 295 293 291 292 293 294 295 295 295 295 296 297 298 299 299 301 303 304 304 305 305 304 303 303 301 298 293 289 286 281 276 273 269 264 260 259 256 253 250 246 244 242 241 239 237 234 230 226 221 218 219 221 220 218 217 218 219 220 223 227 231 235 237 239 241 243 244 247 250 252 256 261 264 267 270 274 278 283 289 294 297 298
296 299 300 298 295 293 294 295 296 296 296 296 297 298 300 301 303 304 307 309 310 312 313 313 311 312 311 308 303 299 296 291 283 277 274 272 266 262 259 254 248 243 239 235 234 233 233 231 228 222 217 212 211 213 214 213 212 214 217 219 221 225 228 229 229 231 235 237 239 242 246 248 251 254 259 263 266 269 273 279 286 292 295 296 297
301 303 303 301 298 297 298 297 298 299 300 299 299 301 302 305 308 310 313 315 317 318 318 317 316 317 318 316 313 309 304 297 286 278 277 276 268 261 255 248 242 236 230 227 226 226 226 224 219 213 209 206 206 209 212 213 214 216 218 219 220 222 223 223 225 228 231 234 237 241 244 245 248 253 257 261 265 269 275 282 289 293 294 296 298
305 307 307 304 301 301 301 301 302 305 306 304 302 303 306 310 314 317 319 321 323 323 322 320 319 319 322 325 326 323 317 309 297 286 283 278 268 256 246 237 230 225 222 221 220 218 216 213 210 208 207 207 209 212 215 216 217 218 218 217 217 218 219 221 224 226 229 233 237 239 241 244 248 253 257 260 264 270 279 286 290 292 295 297 299
307 311 310 308 305 305 306 307 308 310 312 310 308 308 311 315 319 321 322 323 325 326 326 325 324 323 324 327 329 328 325 323 316 305 293 280 263 247 234 226 221 219 217 214 210 206 204 203 204 206 208 209 210 211 214 216 217 217 216 214 214 216 217 218 220 223 226 231 235 238 240 244 248 252 256 260 265 274 283 287 290 293 296 298 299
309 313 313 309 307 307 309 309 310 312 313 312 312 314 316 319 321 322 323 324 326 327 327 327 327 327 326 325 324 323 322 320 316 310 300 284 265 245 228 221 219 218 214 209 204 201 201 202 203 203 204 205 204 205 209 214 215 213 212 213 214 215 215 217 220 223 227 232 236 239 241 243 247 251 256 260 267 277 284 286 289 293 296 297 298
310 314 313 310 308 310 312 312 311 311 311 312 314 316 318 322 324 325 327 328 328 329 329 329 329 329 328 326 324 324 323 318 308 296 279 261 255 250 234 224 221 218 213 209 205 201 199 199 200 198 197 199 201 204 206 208 207 206 208 211 212 213 216 220 223 225 229 233 236 238 240 243 247 251 255 260 267 275 281 284 288 293 295 295 296
309 312 312 310 310 311 313 315 314 311 309 312 314 315 318 324 328 330 332 333 333 334 337 338 337 336 336 334 332 331 331 328 320 307 286 262 252 248 237 226 220 212 207 205 203 197 193 193 196 196 196 196 198 201 203 203 201 201 205 209 211 214 218 221 223 226 229 232 235 238 241 244 247 250 254 259 266 273 279 284 288 292 294 293 293
308 312 311 311 312 314 316 317 317 314 312 315 316 317 320 327 331 333 336 339 341 344 348 349 348 348 348 347 345 343 344 343 338 329 307 275 254 239 226 217 209 199 191 187 186 185 184 186 191 195 196 197 198 201 204 204 204 205 209 214 218 221 223 223 224 227 230 233 236 239 241 244 246 249 253 259 265 272 279 283 286 290 293 292 291
306 312 314 315 317 319 321 321 319 317 317 319 321 321 324 329 333 336 340 344 349 354 357 357 357 359 2 3 3 2 2 1 358 353 353 144 148 156 167 174 175 173 171 172 172 172 173 178 184 189 194 198 203 206 209 210 211 214 218 222 225 226 226 225 226 228 231 233 236 238 240 242 245 248 253 259 265 271 278 281 283 289 294 292 288
304 313 318 321 323 326 329 329 326 322 320 322 325 327 329 332 336 340 345 350 357 3 5 5 5 8 14 23 30 35 39 44 48 59 82 100 106 112 120 126 134 145 154 161 166 169 172 177 183 189 196 203 209 213 214 216 218 221 225 228 229 228 227 226 227 228 229 230 232 233 235 238 243 248 253 258 263 270 276 278 279 287 294 293 287
302 313 322 327 328 331 334 337 336 332 327 327 329 332 333 336 340 344 350 358 4 8 11 13 15 21 34 46 50 49 51 57 65 73 82 91 97 103 110 117 125 138 150 157 162 169 178 186 193 199 205 210 215 217 218 220 222 224 226 228 228 226 224 224 224 224 225 226 227 229 232 237 243 249 254 258 263 268 274 276 278 283 290 290 286
292 309 320 325 329 331 335 339 341 340 336 332 333 335 335 337 341 347 355 5 9 10 14 19 28 41 52 57 57 57 60 65 71 75 80 88 94 98 104 111 120 133 147 158 166 175 185 194 201 207 211 214 217 220 221 222 222 222 222 223 222 220 219 219 219 220 220 221 224 228 233 239 245 251 254 258 262 267 272 276 278 280 283 285 284